Regional Weather Roundup
Issued by NWS

Home | Current Version | Previous Version | Graphics & Text | Print | Product List | Glossary Off
Versions: 1 2 3 4 5 6 7 8 9 10 11 12 13 14 15 16 17 18 19 20 21 22 23 24 25 26 27 28 29 30 31 32 33 34 35 36 37 38 39 40 41 42 43 44 45 46 47 48 49 50

000
ASUS43 KMKX 270111
RWRWI

WISCONSIN REGIONAL WEATHER ROUNDUP
NATIONAL WEATHER SERVICE MILWAUKEE/SULLIVAN WI
800 PM CDT SUN APR 26 2015

NOTE: "FAIR" INDICATES FEW OR NO CLOUDS BELOW 12,000 FEET WITH NO
SIGNIFICANT WEATHER AND/OR OBSTRUCTIONS TO VISIBILITY.

WIZ001-002-006>008-014>016-023>028-270200-
NORTHWEST WISCONSIN

CITY           SKY/WX    TMP DP  RH WIND       PRES   REMARKS
SUPERIOR ARPT  CLEAR     38  29  71 E3        30.16S
ASHLAND        CLEAR     40  32  73 N5        30.16F
HAYWARD        CLEAR     50  22  33 NE6       30.13S
SIREN          CLEAR     55  21  26 NE6       30.12R
CUMBERLAND     CLEAR     50  23  34 NE9       30.11R
RICE LAKE      CLEAR     52  24  33 NE15      30.13R
CHETEK         CLEAR     54  25  32 N10G17    30.10R
LADYSMITH      CLEAR     51  26  37 N15       30.12S
EAU CLAIRE     CLEAR     57  19  22 N8        30.07R
MENOMONIE      CLEAR     58  17  19 N9        30.08R
NEW RICHMOND   CLEAR     55  21  26 NE6       30.10R
OSCEOLA        CLEAR     56  23  27 N7        30.12R
$$

WIZ003>005-009-010-017-018-270200-
NORTH CENTRAL WISCONSIN

CITY           SKY/WX    TMP DP  RH WIND       PRES   REMARKS
MANITOWISH WTR CLEAR     45  24  44 N5        30.12R
ARBOR VITAE    CLEAR     46  28  49 N8        30.11R
WOODRUFF       CLEAR     46  28  49 N8        30.11R
RHINELANDER    CLEAR     49  27  42 N5        30.09R
EAGLE RIVER    CLEAR     46  28  50 N7        30.10R
LAND O LAKES   CLEAR     45  29  55 N9        30.12R
PHILLIPS       CLEAR     47  27  44 N12G17    30.10S
TOMAHAWK       CLEAR     49  24  37 CALM      30.09R
MEDFORD        CLEAR     50  27  41 N12       30.08R
MERRILL        CLEAR     51  25  36 NE10G16   30.07R
$$

WIZ029-030-035-036-043>047-270200-
CENTRAL WISCONSIN

CITY           SKY/WX    TMP DP  RH WIND       PRES   REMARKS
WAUSAU         CLEAR     55  24  30 N12       30.04R
MOSINEE        NOT AVBL
MARSHFIELD     CLEAR     56  24  29 N12       30.04R
STEVENS POINT  CLEAR     54  23  29 N7        30.03R
WAUPACA        CLEAR     55  24  29 NE6       30.03R
WAUTOMA        CLEAR     57  24  28 E9        30.02R
WISC RAPIDS    CLEAR     57  19  22 N8        30.03R
CAMP DOUGLAS   CLEAR     54  24  30 NW6       30.02S
$$

WIZ011>013-019>022-031-037>040-048>050-270200-
NORTHEAST WISCONSIN

CITY           SKY/WX    TMP DP  RH WIND       PRES   REMARKS
ANTIGO         CLEAR     49  31  49 N13       30.05R
SHAWANO        CLEAR     49  31  48 SE5       30.05R
OCONTO         CLEAR     46  33  62 NE8       30.06R
STURGEON BAY   PTCLDY    46  28  49 NE16      30.08R
GREEN BAY      CLEAR     50  33  52 NE14      30.05R
MANITOWOC      CLEAR     44  31  60 NE7       30.06R
APPLETON       CLEAR     54  27  35 E10       30.03R
CLINTONVILLE   CLEAR     50  28  43 E5        30.04R
OSHKOSH        CLEAR     50  32  50 E9        30.03R
$$

WIZ032>034-041-042-053>061-270200-
SOUTHWEST WISCONSIN

CITY           SKY/WX    TMP DP  RH WIND       PRES   REMARKS
LA CROSSE      CLEAR     58  26  29 N8        30.04R
SPARTA         CLEAR     57  21  24 CALM      30.05R
VIROQUA        CLEAR     52  26  35 NE6       30.04R
BOSCOBEL       CLEAR     58  24  27 N3        30.03R
PRAIRIE DU CHI CLEAR     57  23  26 NW6       30.03R
PLATTEVILLE    CLEAR     52  31  44 NE5       30.02R
$$

WIZ056-057-062-063-064-067-068-270200-
SOUTH CENTRAL WISCONSIN

CITY           SKY/WX    TMP DP  RH WIND       PRES   REMARKS
REEDSBURG      CLEAR     55  25  32 NW6       30.02R
BARABOO/DELLS  CLEAR     55  21  25 NW6       30.02R
LONE ROCK      CLEAR     57  24  28 N6        30.02R
MINERAL POINT  CLEAR     54  21  28 N5        30.03R
MADISON        CLEAR     54  25  32 CALM      30.00S
MIDDLETON      CLEAR     53  29  39 NW3       30.01S
WATERTOWN      CLEAR     49  31  49 E7        30.01R
MONROE         CLEAR     52  27  37 N3        30.01R
JANESVILLE     CLEAR     52  25  35 NE6       30.01R
$$

WIZ051-052-058>065-066-070>072-270200-
SOUTHEAST WISCONSIN

CITY           SKY/WX    TMP DP  RH WIND       PRES   REMARKS
MILWAUKEE      PTCLDY    43  26  51 N9        30.04R
WAUKESHA       CLEAR     45  23  42 E13       30.04R
MILWAUKEE/TIMM CLEAR     45  23  42 NE7       30.04R
RACINE         CLEAR     42  27  55 N10       30.04R
BURLINGTON     CLEAR     44  24  44 NE7       30.02R
KENOSHA        CLEAR     45  24  43 NE9       30.02R
FOND DU LAC    CLEAR     49  26  41 E10       30.03R
SHEBOYGAN      CLEAR     41  29  62 NE8       30.05R
WEST BEND      CLEAR     45  27  49 NE10      30.04R
JUNEAU         CLEAR     50  31  47 E12       30.03R
$$

LSZ147-162-270200-
LAKE SUPERIOR

STATION/POSITION TIME  TEMP    WIND        PRES    WAVE
                       AIR SEA DIR/SP/G            HT/PER
                 (UTC) (F)     (DEG/KT/KT) (MB)    (FT/S)
W MID LAKE BUOY  0050   36 35  310/  6/  6 1023.1S   1
DEVILS ISLAND    0100   36      40/  6/  7 1022.4S
PORT WING        0040   38      30/  6/  8 1021.3S
SAXON HARBOR     0000   43        CALM     1021.3F
$$

LMZ867-665-643>646-270200-
LAKE MICHIGAN

STATION/POSITION TIME  TEMP    WIND        PRES    WAVE
                       AIR SEA DIR/SP/G            HT/PER
                 (UTC) (F)     (DEG/KT/KT) (MB)    (FT/S)
CHAMBERS ISLAND  0000   42      20/ 13/ 16 1017.9R
NORTHPORT PIER   0000   43      10/ 13/ 14 1017.9S
KEWAUNEE LAKESHO 0000   43      40/  9/ 12 1016.6R
SHEBOYGAN LAKESH 0100   44      10/  8/  9 1018.4R
PORT WASHINGTON  0000   46      40/ 11/ 14 1017.6
MILWAUKEE LAKESH 0000   45      20/ 10/ 13   N/A
KENOSHA   LAKESH 0100   46      10/ 15/ 16 1016.6R
$$

TC  - TEMPERATURE IN CELSIUS
VSB - VISIBILITY IN STATUTE MILES
WCI - WIND CHILL INDEX
HX  - HEAT INDEX



USA.gov is the U.S. government's official web portal to all federal, state and local government web resources and services.